Regional Weather Roundup
Issued by NWS Raleigh/Durham, NC

Home | Current Version | Previous Version | Text Only | Print | Product List | Glossary On
Versions: 1 2 3 4 5 6 7 8 9 10 11 12 13 14 15 16 17 18 19 20 21 22 23 24 25 26 27 28
000
ASUS42 KRAH 311010
RWRRAH
NORTH CAROLINA WEATHER ROUNDUP
NATIONAL WEATHER SERVICE RALEIGH NC
600 AM EDT FRI OCT 31 2014

NOTE: "FAIR" INDICATES FEW OR NO CLOUDS BELOW 12,000 FEET WITH NO
SIGNIFICANT WEATHER AND/OR OBSTRUCTIONS TO VISIBILITY.

NCZ001-053-055-056-065-067-311100-
WESTERN NORTH CAROLINA

CITY           SKY/WX    TMP DP  RH WIND       PRES   REMARKS
ASHEVILLE      CLOUDY    38  35  89 N6        29.97S WCI  33
JEFFERSON      PTCLDY    37  33  87 CALM      29.96S
MORGANTON      CLEAR     41  38  91 N3        30.02R
HICKORY        CLEAR     41  37  86 NW5       29.97R
RUTHERFORDTON  CLOUDY    46  39  76 N3        29.97R
MOUNT AIRY     CLEAR     40  35  82 CALM      30.00R
BOONE          CLEAR     30  30 100 CALM      29.97S
$$

NCZ021-022-025-041-071-084-088-311100-
CENTRAL NORTH CAROLINA

CITY           SKY/WX    TMP DP  RH WIND       PRES   REMARKS
CHARLOTTE      CLEAR     42  37  82 N6        29.96R
GREENSBORO     PTCLDY    41  36  82 N5        29.97S
WINSTON-SALEM  PTCLDY    42  34  73 NE5       29.98S
RALEIGH-DURHAM PTCLDY    44  38  79 NE6       29.96F
FORT BRAGG     PTCLDY    46  44  93 VRB3      29.93F
FAYETTEVILLE   PTCLDY    47  45  93 N10       29.93S
BURLINGTON     CLEAR     41  35  79 N3        29.97F
LAURINBURG     CLEAR     45  43  93 NE6       29.94S
$$

NCZ011-015-027-028-043-044-047-080-103-311100-
NORTHEASTERN NORTH CAROLINA

CITY           SKY/WX    TMP DP  RH WIND       PRES   REMARKS
ROCKY MT-WILSO MOCLDY    46  42  86 N9        29.95F
GREENVILLE     MOCLDY    45  45 100 N3        29.95F
WASHINGTON     CLOUDY    47  44  90 N5        29.93S
ELIZABETH CITY CLOUDY    54  45  71 N12       29.94S
MANTEO         CLOUDY    58  44  57 N12G18    29.92R
CAPE HATTERAS  CLOUDY    60  50  69 NE13G25   29.86F
$$

NCZ078-087-090-091-093-098-101-311100-
SOUTHEASTERN NORTH CAROLINA

CITY           SKY/WX    TMP DP  RH WIND       PRES   REMARKS
LUMBERTON      CLEAR     47  45  93 N5        29.92S FOG
GOLDSBORO      PTCLDY    48  47  97 N7        29.91F
KINSTON        PTCLDY    47  46  93 N5        29.93F
KENANSVILLE    MOCLDY    47  45  90 N5        29.93S
NEW BERN       CLOUDY    54  47  77 N9        29.91F
CHERRY POINT   CLOUDY    55  49  80 N10       29.90S
BEAUFORT       CLOUDY    58  50  75 N16G23    29.86F
JACKSONVILLE   MOCLDY    51  47  86 N8        29.89S
WILMINGTON     MOCLDY    52  48  86 NE9       29.89S
$$




USA.gov is the U.S. government's official web portal to all federal, state and local government web resources and services.